Regional Weather Roundup
Issued by NWS

Home | Current Version | Previous Version | Graphics & Text | Print | Product List | Glossary On
Versions: 1 2 3 4 5 6 7 8 9 10 11 12 13 14 15 16 17 18 19 20 21 22 23 24 25 26 27 28 29 30 31 32 33 34 35 36 37 38 39 40 41 42 43 44 45 46 47 48 49 50
000
ASUS43 KMPX 181810
RWRMN
WEATHER ROUNDUP FOR MINNESOTA
NATIONAL WEATHER SERVICE TWIN CITIES/CHANHASSEN MN
1200 PM CST SUN FEB 18 2018


NOTE: "FAIR" INDICATES FEW OR NO CLOUDS BELOW 12,000 FEET WITH NO
SIGNIFICANT WEATHER AND/OR OBSTRUCTIONS TO VISIBILITY. N/A MEANS
CURRENT SKY AND/OR WEATHER CONDITIONS ARE NOT AVAILABLE.

MNZ060>063-068>070-181900-
   Twin Cities Metro

CITY           SKY/WX    TMP DP  RH WIND       PRES   REMARKS
TWIN CITIES    CLOUDY    35  27  72 S22G33    29.67F WCI  23
6HR MIN TEMP:  21; 6HR MAX TEMP:  35;

ST PAUL        PTSUNNY   35  26  69 SE22G32   29.68F WCI  23
CRYSTAL        CLOUDY    33  24  69 SE20G26   29.62F WCI  21
BLAINE         CLOUDY    36  27  69 S22G30    29.63F
LAKEVILLE      FAIR      36  28  75 S17G26    29.66F
EDEN PRAIRIE   CLOUDY    37  26  64 S20G26    29.63F
6HR MIN TEMP:  22; 6HR MAX TEMP:  37;

SOUTH ST PAUL  FAIR      36  26  66 S15G30    29.67F
LAKE ELMO      FAIR      34  27  75 SE17G28   29.68F WCI  23
$$
MNZ001>005-007-008-013>017-022>024-027-028-181900-
   Northwest Minnesota

CITY           SKY/WX    TMP DP  RH WIND       PRES   REMARKS
BEMIDJI        LGT SNOW  15  11  86 NE10      29.74F VSB 3/4 WCI   2
HALLOCK        PTSUNNY   12   9  85 N12       29.91R FOG     WCI  -2
WARROAD        LGT SNOW   7   3  85 NE8       29.88F WCI  -6
THIEF RVR FALL LGT SNOW  13   9  84 N15       29.81F VSB 3/4 WCI  -3
CROOKSTON      LGT SNOW  14  10  85 NE15      29.82R VSB 1   WCI  -1
FOSSTON        SNOW      16  10  79 NE9       29.74F VSB 1/2 WCI   4
DETROIT LAKES  LGT SNOW  21  18  86 E9G16     29.65F WCI  11
MOORHEAD       DRIZZLE   19  16  86 NE17G24   29.68F WCI   4
PARK RAPIDS    LGT SNOW  18  13  80 E9        29.66F VSB 3/4 WCI   7
MAHNOMEN       LGT SNOW  17  13  84 NE14      29.70F WCI   3
$$
MNZ006-009>011-018-025>026-181900-
   North Central Minnesota

CITY           SKY/WX    TMP DP  RH WIND       PRES   REMARKS
BAUDETTE       LGT SNOW   9   4  80 NE8       29.86F VSB 1   WCI  -3
FLAG ISLAND    LGT SNOW   7   1  78 N8        29.91F WCI  -6
INTL FALLS     SNOW       9   5  84 NE6       29.86F VSB 1/2 WCI  -1
6HR MIN TEMP:  -3; 6HR MAX TEMP:   9; 6HR PCP:  0.09;

WASKISH        LGT SNOW  14  10  85 NE9       29.81F WCI   2
BIG FORK       SNOW      14  10  85 NE7       29.80F VSB 1/4 WCI   4
LONGVILLE      LGT SNOW  18  14  86 E7        29.71F VSB 3/4 WCI   8
GRAND RAPIDS   SNOW      16  12  84 E5        29.76F VSB 1/2 WCI   9
CRANE LAKE     SNOW      10   7  85 CALM      29.90F VSB 1/2
ORR            SNOW      12   9  85 E6        29.81F VSB 1/2 WCI   3
COOK           HVY SNOW  12  10  92 E3        29.82F VSB 1/4
WALKER         SNOW      16  13  87 E8        29.71F VSB 1/4 WCI   5
$$
MNZ012-019>021-037-181900-
   Northeast Minnesota

CITY           SKY/WX    TMP DP  RH WIND       PRES   REMARKS
DULUTH         CLOUDY    19  11  70 E17G25    29.75F WCI   4
6HR MIN TEMP:  12; 6HR MAX TEMP:  19; 6HR PCP:  0.10;

ELY            HVY SNOW  12  10  92 NE6       29.84F VSB 1/4 WCI   3
HIBBING        SNOW      15  12  88 E8        29.78F VSB 1/4 WCI   4
EVELETH        SNOW     N/A N/A N/A E8        29.80F VSB 1/4
DULUTH HARBOR  FAIR      21  16  79 NE21      29.82S WCI   6
TWO HARBORS    SNOW      21  18  86 NE13      29.78F VSB 1/2 WCI   9
GRAND MARAIS     N/A     16  11  80 NE12G18   29.98F WCI   3
G MARAIS ARPRT LGT SNOW  10   3  72 E8        29.88F VSB 3/4 WCI  -1
$$
MNZ029>031-032-039>041-046>048-054>057-064-181900-
   West Central Minnesota

CITY           SKY/WX    TMP DP  RH WIND       PRES   REMARKS
FERGUS FALLS   FLURRIES  25  16  68 E7G16     29.60F WCI  17
WHEATON        CLOUDY    34  21  60 E6        29.58S WCI  29
MORRIS         CLOUDY    36  21  55 SE12      29.54S
ALEXANDRIA     CLOUDY    31  22  69 E9        29.57F WCI  23
ELBOW LAKE     FAIR      29  20  70 SE12      29.58F WCI  19
WADENA         FAIR      21  10  63 E9        29.62F WCI  11
GLENWOOD       FAIR      34  23  64 SE12      29.56F WCI  25
APPLETON       CLOUDY    41  25  52 CALM      29.53F
BENSON         CLOUDY    39  23  52 S8        29.56S
ORTONVILLE     CLOUDY    36  23  60 SE5       29.53S
MADISON        CLOUDY    46  27  46 SW8       29.52R
WILLMAR        FAIR      37  25  60 S9        29.58F
$$
MNZ033>034-036-042>043-049>051-058-059-181900-
   Central Minnesota

CITY           SKY/WX    TMP DP  RH WIND       PRES   REMARKS
ST CLOUD       FAIR      32  22  66 SE9       29.63F WCI  24
6HR MIN TEMP:  19; 6HR MAX TEMP:  32;

SAUK CENTRE    MOCLDY    32  23  68 SE9       29.58F WCI  24
PAYNESVILLE    FAIR      37  26  64 S12G23    29.59F
AITKIN         PTSUNNY   21   9  58 E8        29.69S WCI  12
PINE RIVER     FLURRIES  18   9  68 E10       29.71F WCI   6
BRAINERD       CLOUDY    24   9  52 E7        29.66F WCI  16
STAPLES        FAIR      25  10  54 E8        29.64F WCI  16
LONG PRAIRIE   FAIR      27  18  69 NE7       29.61F WCI  19
LITTLE FALLS   CLOUDY    28  10  47 E7        29.63F WCI  21
LITCHFIELD     FAIR      37  27  65 S7        29.60S
BUFFALO        FAIR      35  24  65 S12G20    29.63F WCI  27
MAPLE LAKE     PTSUNNY   36  27  70 S8G17     29.63F
HUTCHINSON     FAIR      37  29  70 S13G24    29.61S
$$
MNZ037-044-045-052-053-181900-
   East Central Minnesota

CITY           SKY/WX    TMP DP  RH WIND       PRES   REMARKS
PRINCETON      FAIR      32  21  64 SE7G18    29.65F WCI  26
MORA           FAIR      30  18  59 SE7       29.70F WCI  23
CAMBRIDGE      FAIR      34  21  60 SE12G20   29.66F WCI  25
RUSH CITY      CLOUDY    30  20  67 S12       29.68F WCI  20
MOOSE LAKE     CLOUDY    27   9  46 E5        29.70F WCI  21
HINCKLEY       FAIR      30  18  59 SE8       29.70F WCI  23
CLOQUET        PTSUNNY   19   9  63 E8        29.74F WCI   9
MCGREGOR       CLOUDY    23  10  58 E8        29.72F WCI  14
$$
MNZ071>073-080-081-089-090-097-098-181900-
   Southwest Minnesota

CITY           SKY/WX    TMP DP  RH WIND       PRES   REMARKS
MONTEVIDEO     CLOUDY    43  27  52 SW10G18   29.54S
GRANITE FALLS  CLOUDY    45  29  53 S15G26    29.56S
CANBY          CLOUDY    44  28  52 SW20G25   29.53R
MARSHALL       CLOUDY    44  27  51 SW26G36   29.51S
REDWOOD FALLS  CLOUDY    40  28  62 S14       29.58S
OLIVIA         CLOUDY    41  28  60 S17G24    29.56F
PIPESTONE      CLOUDY    39  28  65 SW21G26   29.53F
WINDOM         CLOUDY    41  21  45 S20G33    29.59R
WORTHINGTON    CLOUDY    40  28  62 S32G39    29.57R
JACKSON        CLOUDY    41  30  65 S25G31    29.62R
TRACY          CLOUDY    42  29  60 SW31G39   29.52S
SLAYTON        CLOUDY    38  29  70 S29G38    29.54S
$$
MNZ065>067-074>077-082>085-091>093-181900-
   South Central Minnesota

CITY           SKY/WX    TMP DP  RH WIND       PRES   REMARKS
MANKATO        FAIR      40  30  67 S25G43    29.61F
NEW ULM        CLOUDY    39  28  65 S23G36    29.59F
ST JAMES       CLOUDY    37  30  75 S30G41    29.61S
FAIRMONT       MOSUNNY   38  31  76 S31G41    29.60F
GLENCOE        PTSUNNY   38  30  70 S12G18    29.61S
FARIBAULT      FAIR      37  28  70 S24G31    29.66F
OWATONNA       FAIR      37  28  70 S30G44    29.68F
WASECA         PTSUNNY   39  32  75 S33G39    29.66F
ALBERT LEA     FAIR      37  28  70 S25G38    29.68F
$$
MNZ078>079-086>088-094>096-181900-
   Southeast Minnesota

CITY           SKY/WX    TMP DP  RH WIND       PRES   REMARKS
ROCHESTER      FAIR      33  27  78 S31G46    29.74F WCI  19
6HR MIN TEMP:  19; 6HR MAX TEMP:  33;

RED WING       FAIR      36  23  60 SE15G22   29.75F
STANTON        FAIR      37  29  72 S20G37    29.67F
DODGE CENTER   FAIR      36  28  75 S28G37    29.72F
WINONA         CLOUDY    37  28  70 S21G30    29.82F
AUSTIN         FAIR      37  28  70 S23G33    29.75F
PRESTON        PTSUNNY   34  27  76 S26G40    29.79F WCI  21
$$
ABBREVIATIONS USED IN REMARKS
   TC - TEMPERATURES IN CELSIUS
  WCI - WIND CHILL INDEX
   HX - HEAT INDEX
  VSB - VISIBILITY
$$




USA.gov is the U.S. government's official web portal to all federal, state and local government web resources and services.